Zurück zum Katalog

STARLINK-37302

AktivKommunikationSSO
NORAD 68669·PAYLOAD·🇺🇸 United States

Gestartet Apr 11, 2026 von Vandenberg Space Force Base

Loading…

Nächste Überflüge (nächste 24 Stunden)

TLE

AktuellSource: CelesTrak SupGP

Epoche: Sep 15, 2026, 03:59 UTC

1 68669C 26077H   26258.16645833 -.00001710  00000+0 -53083-4 0  2587
2 68669  97.2848 128.1109 0001933  95.3601 274.4616 15.33445560    14

Verfolge STARLINK-37302 in Echtzeit mit AllMySat

Download on the App Store